GFSFLT2_sfc_thetae_057.txt.gz
Theta_e
340 346 356 357 357 356 355 355 357 358 359 359 358 357 355 353 352 350 347 347 344 342 341 341 340 341 341 341 341 341 342 344
338 347 354 357 357 357 355 354 354 355 356 357 357 356 355 353 352 349 348 346 345 344 343 342 343 345 346 345 345 346 345 346
338 348 351 357 356 355 355 353 352 352 352 354 354 354 354 352 351 349 348 347 348 348 347 346 347 347 347 347 348 347 345 345
345 347 347 351 354 356 355 353 352 351 351 351 351 351 351 351 350 349 348 348 348 348 348 347 347 348 348 348 348 347 344 343
347 347 345 346 350 349 350 354 353 352 351 350 351 351 351 350 350 349 347 347 348 348 348 348 348 348 348 348 348 348 345 344
347 346 346 344 345 345 346 350 352 352 352 351 350 351 348 342 343 343 345 345 348 348 349 349 348 348 349 349 348 348 346 337
344 346 346 345 342 340 344 344 344 345 345 345 343 342 342 338 336 342 343 348 347 348 349 349 349 349 348 341 341 346 341 338
343 347 347 345 342 339 338 341 344 343 343 343 341 339 340 339 336 339 336 339 337 344 340 344 344 344 341 340 338 338 340 338
334 342 347 345 341 337 337 341 342 340 340 340 341 338 338 337 334 333 333 333 333 337 336 334 338 338 338 338 338 336 338 337
328 336 337 344 341 339 337 342 342 341 340 339 339 339 338 337 334 333 331 332 332 333 336 333 332 335 336 337 337 338 338 339
327 328 334 334 347 344 342 342 343 343 343 341 340 340 339 337 336 333 332 332 332 332 334 334 331 332 334 335 335 337 338 339
330 330 333 332 331 348 344 344 346 348 343 344 343 343 341 338 337 336 335 332 332 333 332 334 332 331 333 334 336 337 338 338
330 331 335 339 345 349 349 348 346 345 346 344 342 345 344 341 338 339 336 335 333 334 334 333 333 331 331 334 334 333 335 338
329 330 329 339 352 352 350 349 347 346 344 344 344 344 348 344 342 338 340 337 334 335 334 333 332 332 330 329 330 330 335 335
328 330 331 333 347 351 351 348 347 346 346 345 346 344 344 347 345 341 340 339 340 335 335 332 330 330 329 330 330 328 333 332
331 332 333 332 338 338 331 336 336 336 336 337 338 340 343 349 347 345 341 340 338 337 334 334 332 329 328 328 326 327 328 331
326 327 330 330 332 333 333 331 331 331 332 332 333 338 343 346 347 344 341 339 339 337 335 335 333 328 328 327 323 323 318 322
326 327 328 329 331 333 332 334 334 332 332 334 337 338 343 346 346 346 342 339 339 337 335 334 333 328 324 324 329 323 318 313
326 328 328 330 331 332 332 331 332 332 330 329 336 341 342 345 345 344 343 340 340 339 335 335 335 330 330 325 328 329 325 322

GFSFLT2_sfc_thetae_060.txt.gz
Theta_e
344 345 353 356 356 359 360 360 360 360 360 360 360 358 356 354 352 350 347 346 344 342 341 341 340 340 340 341 341 341 341 343
339 342 352 356 355 357 359 359 359 359 359 360 360 358 356 355 352 349 347 345 344 343 343 342 342 344 344 343 343 344 343 345
337 344 350 355 354 354 355 357 357 358 358 359 359 357 356 355 352 350 348 347 347 347 347 346 346 346 347 347 347 347 346 346
340 345 348 350 352 354 352 353 355 355 355 356 356 355 355 354 352 350 349 348 348 348 348 348 347 348 348 347 347 348 346 344
342 342 346 348 348 347 347 353 352 352 352 353 353 353 353 352 351 350 347 348 348 349 348 348 348 348 348 348 348 348 345 345
341 339 342 345 345 346 346 348 351 352 351 351 350 351 348 343 344 344 346 345 348 348 349 349 348 348 348 348 348 346 346 338
339 341 339 343 344 343 346 345 344 344 344 343 342 342 341 337 338 342 344 347 347 348 348 349 349 348 346 340 340 345 340 338
341 342 341 338 340 340 340 343 342 341 341 340 339 338 338 338 337 339 335 340 338 344 338 343 343 343 339 338 338 336 338 338
340 342 342 339 337 336 336 340 340 339 339 340 339 337 337 335 333 332 333 333 333 334 334 334 336 338 338 339 338 336 334 336
335 341 343 340 337 334 333 336 337 336 336 336 337 337 336 335 332 332 330 330 333 330 334 332 334 335 337 338 338 336 335 335
330 341 342 340 338 334 333 335 337 337 336 334 336 336 336 335 333 331 330 329 330 331 333 333 331 332 333 335 334 335 335 336
330 335 341 341 340 336 335 338 339 339 339 337 336 337 337 335 334 332 330 329 329 330 330 332 329 328 329 332 332 333 333 336
327 331 334 342 338 340 338 339 340 341 340 340 339 339 339 337 335 334 332 330 331 331 330 331 330 326 327 329 330 332 333 334
326 329 333 333 334 341 343 341 341 342 341 341 341 341 341 340 338 335 335 333 330 331 331 330 330 328 325 327 330 331 330 332
325 326 332 334 337 338 341 345 343 342 341 339 342 342 342 342 340 336 337 334 334 330 331 330 328 329 327 328 331 330 329 333
323 325 325 326 337 343 343 340 340 341 341 342 342 341 341 344 342 338 336 336 336 333 332 332 329 327 326 327 323 323 325 329
320 326 327 329 340 345 344 343 338 341 336 340 342 340 340 343 344 341 338 337 337 336 332 331 330 326 326 325 321 321 321 320
318 326 329 330 339 344 342 338 328 329 328 329 330 330 333 340 345 343 341 339 338 337 334 331 331 328 324 324 327 325 319 317
318 324 328 329 335 337 334 332 329 325 322 325 324 332 334 341 344 343 341 339 337 336 333 333 333 327 325 325 329 329 324 320

GFSFLT2_sfc_thetae_063.txt.gz
Theta_e
341 344 354 358 359 361 361 360 359 359 359 359 359 357 355 354 352 350 348 347 345 342 342 341 340 340 339 339 339 339 340 342
340 341 350 356 358 360 361 360 359 359 359 359 359 357 355 354 352 349 348 346 345 343 342 342 342 343 343 342 341 342 343 345
338 341 346 355 356 357 359 359 358 358 358 359 358 358 357 355 352 350 348 347 347 347 346 344 345 345 345 345 344 344 345 345
336 341 344 347 352 357 357 358 358 357 357 357 357 357 356 355 353 351 349 348 348 348 348 348 347 347 346 345 345 346 346 346
335 339 341 344 346 346 350 357 357 357 357 357 357 356 355 355 353 352 348 348 348 348 349 348 348 347 347 347 347 346 346 345
336 336 341 343 343 342 342 350 355 357 357 356 356 355 352 348 346 345 346 346 348 348 349 349 348 348 348 347 346 345 345 337
330 334 339 341 342 340 343 341 343 344 347 347 347 347 343 338 337 341 344 346 347 348 348 348 348 348 345 339 339 344 338 337
332 335 338 341 341 340 339 340 342 338 338 338 337 337 337 336 336 339 336 338 337 345 338 342 341 341 337 336 336 335 335 335
332 334 336 339 339 339 337 340 339 338 337 337 336 335 335 333 332 332 334 333 333 333 332 333 334 335 336 336 336 335 335 334
333 335 336 335 336 337 334 337 336 336 336 336 335 335 335 333 331 330 331 331 331 329 330 330 330 333 334 335 337 336 335 333
332 338 339 337 334 333 332 333 333 334 333 333 335 335 335 332 330 330 327 329 329 329 330 331 330 330 331 333 334 335 334 333
325 338 341 339 336 331 329 330 331 332 332 332 332 333 334 332 329 328 327 326 328 329 328 329 328 327 327 330 331 331 332 332
325 333 341 343 338 334 332 332 333 334 334 334 333 333 334 334 332 329 327 327 327 327 329 329 327 325 326 326 328 329 329 330
323 327 333 339 338 336 334 334 335 337 337 337 337 336 336 336 335 332 331 329 327 328 328 328 326 326 323 324 327 327 328 329
321 324 328 335 338 338 337 338 337 339 339 338 339 339 339 338 337 333 333 331 329 328 327 327 326 326 324 325 328 328 327 328
320 320 324 327 329 334 338 337 337 337 339 340 341 341 340 340 339 334 334 332 331 328 329 329 327 325 324 325 323 321 323 327
314 320 323 326 329 332 334 339 336 339 338 341 341 339 339 340 340 337 335 334 333 331 328 329 328 324 326 327 324 322 316 319
309 313 321 323 325 329 337 334 328 331 329 331 331 333 336 338 341 340 337 335 334 334 331 330 329 327 325 326 327 325 319 316
304 307 317 323 324 327 337 337 333 333 333 330 331 331 332 334 337 341 339 336 336 336 332 332 331 328 328 326 327 329 326 323

GFSFLT2_sfc_thetae_069.txt.gz
Theta_e
345 353 360 360 361 361 361 359 358 358 358 357 357 357 356 356 354 352 351 350 349 346 344 344 343 342 342 341 342 343 344 345
343 350 358 360 361 361 361 360 359 358 357 357 357 357 357 355 353 351 351 350 349 349 347 344 344 346 345 343 343 344 344 345
344 349 355 360 360 360 360 359 358 357 357 357 357 357 356 355 353 351 351 351 350 350 349 348 347 347 347 345 344 344 345 344
344 347 354 357 360 360 360 358 358 358 357 357 356 356 356 355 353 351 350 350 350 350 349 348 348 347 347 345 344 345 344 345
341 343 350 354 354 356 357 359 358 358 358 358 357 356 356 355 353 352 349 349 350 350 350 349 348 348 347 347 346 345 345 345
336 342 346 349 352 353 353 356 358 358 358 358 358 357 355 353 353 351 348 348 350 350 350 350 349 348 347 345 345 345 344 342
332 338 343 348 350 352 350 355 356 355 356 356 356 357 355 353 353 349 350 348 350 350 350 350 350 349 345 340 342 344 341 342
333 336 341 347 350 349 346 350 352 353 354 355 356 357 356 353 352 350 348 348 347 347 341 344 344 342 340 341 339 340 340 342
332 334 340 344 347 348 346 346 348 349 352 351 352 355 353 350 349 348 345 344 346 342 342 342 340 341 342 341 340 339 340 339
334 335 338 342 346 346 347 343 345 348 347 348 349 351 350 347 346 345 344 342 340 340 339 340 340 341 340 341 340 339 337 338
332 337 338 342 346 345 345 346 344 345 344 344 345 346 348 346 345 341 341 340 339 339 338 339 338 339 339 338 338 339 339 339
329 333 340 342 343 344 342 345 343 342 341 340 340 343 344 344 343 341 338 338 338 340 341 340 340 339 337 338 338 339 340 342
325 330 335 341 341 344 341 340 340 341 340 339 339 340 341 342 342 340 337 337 338 339 338 337 337 336 336 337 337 339 340 342
321 326 328 338 345 343 342 340 340 341 340 339 339 339 341 341 340 341 341 337 339 336 336 337 337 337 336 337 337 338 340 340
320 323 324 333 344 350 345 341 338 337 337 339 339 339 340 340 340 341 339 337 337 335 335 337 339 339 338 339 336 336 340 341
319 321 322 324 331 344 344 341 339 335 337 337 339 340 340 340 339 340 334 335 337 334 338 341 340 339 337 339 336 336 338 341
318 321 322 323 326 332 341 345 344 344 342 341 341 343 342 342 344 343 336 336 338 338 343 342 341 338 338 338 335 337 332 336
316 319 320 321 324 326 332 340 346 346 346 343 343 342 344 343 344 344 338 340 344 344 342 343 341 340 336 336 340 337 330 327
313 315 318 322 322 324 327 334 344 338 338 342 344 345 347 347 347 345 344 344 346 345 346 343 343 341 341 338 337 339 339 338

GFSFLT2_sfc_thetae_072.txt.gz
Theta_e
349 353 361 360 360 361 360 359 359 360 360 361 361 361 360 359 357 355 354 353 351 348 345 345 345 343 343 341 342 343 344 346
346 350 362 359 360 361 361 360 358 358 358 359 359 359 358 356 355 354 353 352 351 350 348 346 346 347 346 344 344 344 345 345
344 350 359 361 360 360 360 360 358 358 357 357 357 357 357 356 354 353 352 352 351 351 351 349 348 348 348 346 344 345 345 345
344 348 356 360 362 360 360 359 358 358 357 357 356 356 356 355 354 352 352 352 351 351 351 350 349 349 348 346 345 345 345 345
343 345 352 356 357 359 359 360 359 358 358 357 357 357 356 356 354 352 351 351 352 351 351 350 350 349 348 347 346 345 345 346
339 343 348 348 351 354 352 357 358 358 358 358 358 357 354 349 351 349 347 350 352 352 351 351 350 349 348 345 345 345 345 339
335 339 343 347 349 350 346 354 357 356 356 355 353 355 352 349 351 347 349 351 351 351 351 351 351 349 345 338 341 343 340 338
335 337 342 349 352 350 347 348 351 350 352 353 355 356 356 350 352 350 348 350 347 348 342 345 344 343 340 339 338 338 338 339
336 336 339 347 352 354 349 348 350 347 350 350 353 359 356 353 353 350 345 345 347 343 344 342 340 343 342 342 340 338 338 337
334 339 339 343 350 353 353 347 349 350 348 351 351 357 355 352 350 349 347 344 343 342 340 340 340 340 342 342 340 339 338 338
335 335 339 343 350 350 352 353 349 350 349 349 349 350 355 352 351 347 347 344 341 340 339 338 338 340 341 340 340 342 341 341
327 332 336 342 347 352 349 349 350 346 346 344 345 350 352 354 351 350 343 341 339 341 344 343 342 342 341 340 342 342 343 344
324 328 333 337 343 350 353 350 346 343 343 342 344 346 349 350 350 348 340 340 340 342 341 340 340 340 340 341 343 344 345 345
323 325 326 332 340 347 351 349 349 351 345 342 342 341 346 346 345 345 339 341 345 338 340 341 342 343 341 344 344 345 346 345
326 331 328 328 338 349 349 350 346 343 343 342 340 341 345 345 344 345 341 345 343 340 341 342 347 344 345 345 345 344 345 345
323 326 330 330 337 340 344 340 343 343 346 343 343 345 345 345 344 348 340 344 345 342 339 344 345 345 346 347 344 343 343 346
322 324 325 328 331 333 336 349 348 348 346 347 346 347 347 344 348 348 348 346 347 340 346 346 348 345 346 348 341 340 336 340
319 321 322 326 328 331 333 335 342 344 346 345 348 347 348 346 348 351 350 348 347 345 344 348 350 349 342 346 347 341 335 330
317 319 322 325 328 328 331 333 340 336 338 340 345 348 351 349 347 348 353 348 350 346 352 351 351 352 349 344 344 343 348 343

GFSFLT2_sfc_thetae_075.txt.gz
Theta_e
349 354 358 359 360 362 363 363 363 363 363 363 363 363 363 362 360 358 357 355 352 347 344 344 344 343 341 340 340 341 341 345
347 352 359 359 359 360 362 361 361 362 362 363 363 362 362 360 358 357 355 353 351 349 347 345 345 345 345 342 343 343 343 345
347 352 360 358 359 358 360 359 359 359 360 361 361 361 360 358 357 355 354 353 353 351 350 348 347 347 347 344 344 345 345 345
347 349 360 356 359 359 359 359 358 358 358 358 358 357 357 356 355 354 353 353 352 352 351 351 350 348 347 345 345 345 345 346
344 346 357 354 355 355 356 360 359 358 358 358 357 357 357 356 354 353 351 352 352 352 352 351 350 348 347 346 346 346 346 346
341 345 351 350 352 353 351 356 358 358 358 357 356 357 353 346 349 348 346 351 352 352 352 351 351 350 346 345 346 345 345 339
338 342 346 349 350 350 346 354 355 353 352 351 350 352 350 347 350 345 349 352 352 352 352 352 351 349 345 336 339 344 340 336
338 340 342 352 358 350 346 347 351 348 349 351 353 356 356 348 349 348 347 346 347 348 341 345 344 342 339 338 338 340 341 340
338 337 341 347 354 358 348 345 349 346 349 349 350 362 359 351 357 357 347 348 351 345 346 344 342 346 344 343 341 340 339 339
333 339 339 345 354 358 362 350 350 351 346 349 350 357 354 353 358 353 353 346 347 344 343 343 341 343 342 343 342 341 341 342
336 337 342 341 355 354 357 363 359 358 351 349 349 353 362 356 360 350 351 346 344 342 340 340 342 342 343 344 343 343 344 345
331 337 339 344 351 354 356 355 357 350 350 349 349 361 360 362 363 358 347 346 344 346 348 346 345 344 342 344 344 344 345 346
325 326 335 338 344 354 355 354 350 348 349 347 348 350 357 361 361 360 347 344 344 344 341 343 343 342 344 345 346 345 348 350
324 327 329 337 340 348 356 352 354 355 349 344 346 343 352 353 354 354 348 345 353 342 344 345 344 346 346 345 346 350 351 348
325 330 332 335 339 342 351 355 352 349 348 348 345 345 351 350 349 349 346 348 349 343 344 346 349 346 347 348 345 346 352 351
324 328 329 330 338 340 342 345 347 344 347 346 346 350 351 350 348 351 344 348 350 345 344 353 351 351 344 349 345 345 346 353
323 326 325 326 332 336 339 346 345 350 351 350 349 350 352 350 354 352 346 345 350 345 352 355 353 344 345 349 343 341 335 341
319 321 324 326 330 333 336 337 340 346 348 346 349 352 351 350 351 350 347 346 350 349 347 353 352 349 340 348 355 343 333 332
317 319 322 326 328 332 340 337 342 335 332 338 340 348 351 355 350 350 351 348 352 352 348 354 352 354 354 343 347 348 350 347